Regional Weather Roundup
Issued by NWS

Home | Current Version | Previous Version | Text Only | Print | Product List | Glossary Off
Versions: 1 2 3 4 5 6 7 8 9 10 11 12 13 14 15 16 17 18 19 20 21 22 23 24 25 26 27 28 29 30 31 32 33 34 35 36 37 38 39 40 41 42 43 44 45 46 47 48 49 50

000
ASUS45 KTFX 251610
RWRMT
MONTANA REGIONAL WEATHER ROUNDUP
NATIONAL WEATHER SERVICE GREAT FALLS MT
1000 AM MDT TUE JUL 25 2017

NOTE: "FAIR" INDICATES FEW OR NO CLOUDS BELOW 12000 FEET WITH NO
SIGNIFICANT WEATHER AND/OR OBSTRUCTIONS TO VISIBILITY.

MTZ001>007-043-251700-
WEST OF THE DIVIDE

CITY           SKY/WX    TMP DP  RH WIND       PRES   REMARKS
KALISPELL      SUNNY     70  43  37 NE8       30.06S
MISSOULA       SUNNY     70  35  27 N5        30.07F
BUTTE          MOSUNNY   67  36  31 VRB3      30.19S
MULLAN PASS    SUNNY     62  31  31 N3        30.19R
ANACONDA         N/A     61  37  41 NE3       30.17S
DEER LODGE       N/A     64  36  34 CALM      30.17F
EUREKA           N/A     66  37  34 MISG      30.09S
HAMILTON         N/A     66  45  45 CALM      30.08F
LIBBY            N/A     64  36  34 CALM      30.06S
PLAINS           N/A     68  40  35 CALM      30.06S
$$

MTZ008-052>055-251700-
SOUTHWEST MONTANA

CITY           SKY/WX    TMP DP  RH WIND       PRES   REMARKS
BOZEMAN        CLOUDY    67  44  43 W8        30.15S
DILLON         CLOUDY    63  42  46 N10       30.16R
W YELLOWSTONE  CLOUDY    54  48  82 CALM      30.27R
ENNIS          MOSUNNY   63  41  45 SW9       30.24R
THREE FORKS      N/A     67  38  34 CALM      30.13R
TWIN BRIDGES     N/A     65  37  35 N3        30.12R
$$

MTZ009-010-012-014-046-048-049-054-251700-
EAST SLOPES AND CENTRAL MONTANA

CITY           SKY/WX    TMP DP  RH WIND       PRES   REMARKS
CUT BANK       SUNNY     63  37  38 VRB6      30.16F
GREAT FALLS    SUNNY     63  38  39 VRB5      30.17F
HELENA         CLOUDY    66  39  37 W6        30.17S
CHOTEAU          N/A     64  39  39 CALM      30.19S
CONRAD           N/A     65  47  52 W2        30.17F
$$

MTZ011-013-016-021-045-047-050-051-251700-
NORTH CENTRAL MONTANA

CITY           SKY/WX    TMP DP  RH WIND       PRES   REMARKS
HAVRE          SUNNY     66  41  40 NW8       30.14S
LEWISTOWN      SUNNY     66  36  32 CALM      30.18R
N BAR RANCH      N/A     68  34  28 VRB5G12   30.21R
CHINOOK          N/A     66  43  42 W9        30.12F
$$

MTZ017>020-022>027-061-062-251700-
NORTHEAST MONTANA

CITY           SKY/WX    TMP DP  RH WIND       PRES   REMARKS
GLASGOW        SUNNY     67  48  50 NW10      30.09R
SIDNEY         MOSUNNY   74  46  36 N13       30.04R
WOLF POINT     MOSUNNY   76  44  32 NW9       30.06R
MALTA          SUNNY     70  41  35 W12       30.11S
PLENTYWOOD       N/A     68  46  45 NW17      30.02R
POPLAR           N/A     73  45  35 N10G16    30.05R
SCOBEY           N/A     68  44  41 NW8       30.04R
$$

MTZ028>42-056>058-251700-
SOUTHCENTRAL AND SOUTHEAST MONTANA

CITY           SKY/WX    TMP DP  RH WIND       PRES   REMARKS
BAKER          CLOUDY    78  40  25 NE20G30   30.05R
BILLINGS       CLOUDY    68  37  32 NE13      30.16R
MILES CITY     MOSUNNY   77  37  23 NE9       30.06R
BIG TIMBER     SUNNY     64  37  36 E8        30.23S
EKALAKA          N/A     71  43  36 NE10      30.05
FORSYTH          N/A     75  37  25 NE10      30.08R
LAUREL           N/A     68  37  31 NE5       30.14F
$$

REGIONAL REPORTS...DAKOTAS

CITY           SKY/WX    TMP DP  RH WIND       PRES   REMARKS
WILLISTON      SUNNY     74  47  38 NW14      30.02R
MINOT          CLOUDY    74  49  41 NW16G23   29.96R
DICKINSON      CLOUDY    77  43  29 N16       29.98S
BEACH            N/A     75  37  25 N16       30.07S
CROSBY           N/A     70  48  46 NW18G25   29.99S
TIOGA            N/A     70  48  46 NW13G18   30.02S
WATFORD CITY     N/A     73  45  35 NW12      30.01S
BISMARCK       CLOUDY    77  60  55 N13G22    29.93R
GRAND FORKS    PTSUNNY   74  68  81 S13       29.85F
BUFFALO SD       N/A     76  54  46 NE26G35   29.95R
RAPID CITY     CLOUDY    83  56  39 NE12      29.97R
$$

REGIONAL REPORTS...WYOMING/IDAHO/WASHINGTON

CITY           SKY/WX    TMP DP  RH WIND       PRES   REMARKS
GILLETTE       CLOUDY    79  50  36 N13       30.07R
SHERIDAN       PTSUNNY   72  46  39 NW20G26   30.12R
BUFFALO WY     MOSUNNY   72  46  39 N17G25    30.15R
CODY           PTSUNNY   64  44  48 NE14      30.18R
YELLOWSTONE LA   N/A     57  51  80 CALM      30.34R
IDAHO FALLS    CLOUDY    73  53  49 S9        30.11R
BOISE          CLOUDY    75  46  35 NW6       30.00R
SPOKANE        MOSUNNY   72  40  31 NE7       30.04S
$$

REGIONAL REPORTS...ALBERTA

CITY           SKY/WX    TMP DP  RH WIND       PRES   REMARKS
EDMONTON       MOSUNNY   63  54  72 W3        30.03F
CALGARY        MOSUNNY   64  45  48 SW6       30.13F
LETHBRIDGE     MOSUNNY   64  43  45 SW5       30.14S
MEDICINE HAT   SUNNY     66  46  48 W6        30.11S
WATERTON GATE    N/A     63  41  45 S2          N/A
MILK RIVER       N/A     66  41  39 SE2         N/A
$$

REGIONAL REPORTS...SASKATCHEWAN

CITY           SKY/WX    TMP DP  RH WIND       PRES   REMARKS
SWIFT CURRENT  SUNNY     66  48  52 NW17G24   30.06R
REGINA         MOSUNNY   64  54  68 W21       29.94F
SASKATOON      PTSUNNY   66  57  72 NW20G31   29.94R
VAL MARIE        N/A     66  43  42 NW12G20     N/A
ROCKGLEN         N/A     64  46  52 NW17G24     N/A
$$



USA.gov is the U.S. government's official web portal to all federal, state and local government web resources and services.